Arch, NM

4:41 AM MST on December 03, 2016 (GMT -0700)
Clovis Landfill | | Change Station
Active Advisory: Winter Weather Advisory

Elev 4219 ft 34.39 °N, 103.17 °W | Updated 11 seconds ago

Light Rain
Light Rain
32.4 °F
Feels Like 23 °F
N
13.0
Wind Variable Wind from NNE
Gusts 18.0 mph

Today
High -- | Low -- °F
--% Chance of Precip.
Yesterday
High -- | Low -- °F
Precip. -- in
Pressure 30.09 in
Visibility 10.0 miles
Clouds Overcast 600 ft
Windchill 23 °F
Dew Point 31 °F
Humidity 94%
Rainfall 0.00 in
Snow Depth Not available.
6:42 AM 4:42 PM
Waxing Crescent, 14% visible
METAR KCVS 031058Z AUTO 03015KT 10SM -RA OVC006 00/00 A3008 RMK AO2 RAE50DZB50E53RAB53 SLP188 P0001 T00010001 $
Pressure 30.09 in
Visibility 10.0 miles
Clouds Overcast 600 ft
Windchill 23 °F
Dew Point 31 °F
Humidity 94%
Rainfall 0.00 in
Snow Depth Not available.
6:42 AM 4:42 PM
Waxing Crescent, 14% visible
METAR KCVS 031058Z AUTO 03015KT 10SM -RA OVC006 00/00 A3008 RMK AO2 RAE50DZB50E53RAB53 SLP188 P0001 T00010001 $

10-Day Weather Forecast

Almanac

Astronomy

Dec. 03, 2016 Rise Set
Actual Time
Civil Twilight
Nautical Twilight
Astronomical Twilight
Moon
Length of Visible Light
Length of Day
Tomorrow will be .
, % of the Moon is Illuminated

Today's Extremes

State Highs State Lows

Community

WunderPhotos

Upload Photos

1,955,434 photos uploaded!

WunderBlog® & News

Nearby

Air Quality

  Air Quality AQ Index Pollutant
Not available.

Snow Depth

Station Depth Elevation

Earthquake Activity

City Distance Mag. Time & Date
Minimum magnitude displayed is 2.5.

Coastal Water Temperatures

Place Temperature

Stations

Nearby Weather Stations

Station Location Temp. Windchill Dew Point Humidity Wind Precip. Elev Updated Type
                   

Watches & Warnings

Winter Weather Advisory
Issued: 4:23 AM MST Dec. 3, 2016 – National Weather Service

... Winter Weather Advisory remains in effect until 9 am MST
Sunday...

* snow accumulations... one to four inches of snow with small
amounts of sleet and a thin layer of freezing drizzle all
possible.

* Timing... a mix of rain... snow... sleet... and freezing drizzle
possible this morning. Precipitation may occasionally turn to
rain this afternoon before transitioning back to snow or a
wintry mix this evening. Precipitation is expected to taper off
early Sunday morning.

* Winds... generally northeast to east 10 to 20 mph.

* Snow levels... snow or a wintry mix this morning may turn to rain
this afternoon... but will likely return tonight.

* Local impacts... snow and possibly ice may accumulate on
roads... resulting in hazardous driving conditions.
Visibilities will also be reduced in precipitation.

Precautionary/preparedness actions...

A Winter Weather Advisory means that periods of snow... sleet...
or freezing rain will cause travel difficulties. Be prepared for
hazardous Road conditions and reduced visibilities.